Location: B?jaj?g
(11.7167°N, 92.6667°E)
Time: 14:29:01
(UTC+00:00)

CZ-2C R/B - Pass Details

Date: 18 September 2020
Orbit: 704 x 908 km, 98.1° (Epoch: 27 October)

Event Time Altitude Azimuth Distance (km) Brightness Sun altitude
Rises 12:43:46 0° 156° (SSE) 3,133 5.9 -14.5°
Reaches altitude 10° 12:46:03 10° 151° (SSE) 2,233 5.1 -15.0°
Maximum altitude 12:50:46 49° 76° (ENE) 975 3.1 -16.2°
Drops below altitude 10° 12:55:43 10° 3° (N) 2,347 5.5 -17.4°
Sets 12:58:10 0° 358° (N) 3,310 6.4 -18.0°
